Zurück zum Katalog

STARLINK-31345

AktivKommunikationVLEO
NORAD 58941·PAYLOAD·🇺🇸 United States

Gestartet Feb 10, 2024 von Vandenberg Space Force Base

Loading…

Nächste Überflüge (nächste 24 Stunden)

TLE

AktuellSource: CelesTrak SupGP

Epoche: Sep 15, 2026, 02:27 UTC

1 58941C 24027L   26258.10256944 -.00002964  00000+0 -87601-4 0  2582
2 58941  53.1586 148.6338 0001336  80.2585 330.6973 15.34386085    16

Verfolge STARLINK-31345 in Echtzeit mit AllMySat

Download on the App Store